Location: *
(44.3925°N, 5.4708°E)
Time: 04:20:10
(UTC+00:00)

SL-16 R/B - Pass Details

Date: 18 September 2019
Orbit: 840 x 849 km, 71.0° (Epoch: 14 October)

Event Time Altitude Azimuth Distance (km) Brightness Sun altitude
Rises 20:12:11 0° 336° (NNW) 3,415 6.2 -26.0°
Reaches altitude 10° 20:14:40 10° 338° (NNW) 2,477 5.3 -26.3°
Enters shadow 20:20:14 72° 52° (NE) 893 2.1 -27.2°
